Regional Weather Roundup
Issued by NWS

Home | Current Version | Previous Version | Text Only | Print | Product List | Glossary Off
Versions: 1 2 3 4 5 6 7 8 9 10 11 12 13 14 15 16 17 18 19 20 21 22 23 24 25 26 27

000
ASUS45 KBOU 210810
RWRCO

WEATHER ROUNDUP FOR COLORADO
NATIONAL WEATHER SERVICE DENVER/BOULDER CO
100 AM MST TUE NOV 21 2017

NOTE: "FAIR" INDICATES FEW OR NO CLOUDS BELOW 12000 FEET WITH NO
SIGNIFICANT WEATHER AND/OR OBSTRUCTIONS TO VISIBILITY.

COZ001>005-013-030-031-210900-
...NORTHWEST COLORADO...

CITY           SKY/WX    TMP DP  RH WIND       PRES   REMARKS
CRAIG          MOCLDY    32  27  81 CALM      30.15R
HAYDEN         CLOUDY    35  25  66 E6        30.17R WCI  30
MEEKER         CLOUDY    40  18  41 CALM      30.18R
RABBIT EARS PA LGT SNOW  25  23  93 W9G22     30.18R VSB 1   WCI  15
STEAMBOAT SPGS CLOUDY    34  23  63 N3        30.17R
WALDEN         CLOUDY    32  21  64 W13G21    30.14R WCI  22
$$

COZ006>008-011-210900-
...WEST CENTRAL VALLEYS...

CITY           SKY/WX    TMP DP  RH WIND       PRES   REMARKS
GRAND JUNCTION FAIR      34  18  52 CALM      30.23R
MONTROSE       FAIR      32  26  78 SW3       30.25R
EAGLE          FAIR      40   9  28 W10G22    30.18R
RIFLE          MOCLDY    32  27  81 E3        30.23S
DELTA          FAIR      35  22  58 CALM      30.24F
NUCLA          FAIR      32  12  43 CALM      30.27S
$$

COZ017>023-064>068-210900-
...SOUTHWEST COLORADO...

CITY           SKY/WX    TMP DP  RH WIND       PRES   REMARKS
DURANGO        FAIR      25  15  66 N5        30.17F WCI  19
CORTEZ         FAIR      31  16  54 E9        30.21F WCI  23
PAGOSA SPRINGS FAIR      27  15  60 CALM      30.17F
TELLURIDE      FAIR      37   6  28 CALM      30.30R
WOLF CREEK PAS FAIR      30  16  55 W8G20     30.32F WCI  23
$$

COZ009-010-012-014-032>034-037-058>063-210900-
...CENTRAL COLORADO...

CITY           SKY/WX    TMP DP  RH WIND       PRES   REMARKS
ASPEN          CLOUDY    32  24  72 CALM      30.20S
BUENA VISTA    FAIR      41   3  20 N10       30.12R
COPPER MTN     LGT SNOW  23  18  80 MISG      30.23S
BERTHOUD PASS  FLURRIES  21  10  63 NW32G48   30.16R WCI   2
COTTONWOOD PAS FAIR      41   1  19 W23G32    30.17R
GUNNISON       FAIR      25  21  85 CALM      30.24R
KREMMLING      FAIR      43  10  26 W14G21    30.14S
LEADVILLE      CLOUDY    31   8  38 NW13G24   30.19S WCI  21
MONARCH PASS   CLOUDY    25  -4  28 W37       30.34S WCI   6
SALIDA         FAIR      49   2  14 W18G33    30.19R
SUNLIGHT       FAIR      27  12  54 SW14G24   30.27S WCI  15
WILKERSON PASS FAIR      30  14  51 NW20G31   30.15R WCI  18
$$

COZ069>075-210900-
...SAN LUIS VALLEY/SANGRE DE CRISTO MOUNTAINS...

CITY           SKY/WX    TMP DP  RH WIND       PRES   REMARKS
ALAMOSA        FAIR      20  10  65 CALM      30.14R
DEL NORTE      FAIR      33  10  37 N3        30.14F
LA VETA PASS   FAIR      34   5  29 MISG        N/A
SAGUACHE       FAIR      41   1  19 NW15      30.15R
$$

COZ035-036-038>040-210900-
...NORTHERN COLORADO FRONT RANGE...

CITY           SKY/WX    TMP DP  RH WIND       PRES   REMARKS
DENVER INTL AP MOCLDY    53  15  22 NW10      29.93R
DMNS CITY PARK   N/A     50  15  24 N12       29.93R
AURORA         MOCLDY    48  17  28 NW8       29.94R
FRONT RANGE AP FAIR      51  19  28 W6G24     29.93S
ERIE MUNI ARPT FAIR      55  14  19 W6        29.96R
BOULDER MUN AP FAIR      54  18  24 SW14G25   29.91R
CENTENNIAL     MOCLDY    55  19  24 NW17      29.93S
BROOMFIELD     FAIR      55  12  18 W26G37    29.91R
FORT COLLINS   FAIR      52  25  35 W21G29    29.89R
LONGMONT       FAIR      57  17  20 SW15G23   29.93R
$$

COZ041-046-047-076>085-087-088-210900-
...PIKES PEAK/PALMER DIVIDE AND SOUTHERN FOOTHILLS...

CITY           SKY/WX    TMP DP  RH WIND       PRES   REMARKS
COLO. SPRINGS  MOCLDY    47  15  27 NE14      29.98R
A. F. ACADEMY  FAIR      52  12  20 N6        29.96R
SCHRIEVER AFB  MOCLDY    45  10  23 N7        29.97S
CHEYENNE MTN   MOCLDY    50  14  23 NE3       29.93S
ELLICOTT         N/A    N/A N/A N/A E3        29.96R
FALCON         FAIR      39  13  34 CALM      30.00S
FORT CARSON    FAIR      47  14  26 SW8       29.95R
LIMON          FAIR      32  17  54 W3        29.93R
MONUMENT HILL  FAIR      37  18  44 W8        30.01R
CANON CITY     FAIR      50  18  27 CALM      29.95S
WALSENBURG     FAIR      52   0  11 NW15G24   30.00R
TRINIDAD       FAIR      47  16  29 NW12      29.95R
$$

COZ042>045-048>051-090-091-210900-
...NORTHEAST COLORADO...

CITY           SKY/WX    TMP DP  RH WIND       PRES   REMARKS
GREELEY ARPT   FAIR      49  23  36 NW10      29.91R
AKRON          MOCLDY    49  17  28 SW13      29.86S
BURLINGTON     FAIR      41  21  44 W7        29.89R
WRAY           NOT AVBL
YUMA           PTSUNNY   41  23  48 W7        29.84F
STERLING       MOCLDY    48  21  34 E5        29.86R
HOLYOKE        FAIR      59  27  29 NW8       29.83F
FORT MORGAN    FAIR      44  14  30 W8        29.89R
$$

COZ086-089-092>099-210900-
...SOUTHEAST COLORADO...

CITY           SKY/WX    TMP DP  RH WIND       PRES   REMARKS
PUEBLO         FAIR      40  18  41 CALM      29.93R
LA JUNTA       FAIR      44  14  29 NE5       29.90R
LAMAR          FAIR      31  13  47 SW5       29.87R WCI  26
SPRINGFIELD      N/A     40  17  39 NW8       29.88S
$$




USA.gov is the U.S. government's official web portal to all federal, state and local government web resources and services.